{"data":{"norad_id":52817,"epoch":"2026-05-25T03:42:32.459904Z","epoch_age_seconds":61356,"freshness":"FRESH","line1":"1 52817U 22061A   26145.15454236 -.00000060  00000+0  00000+0 0  9997","line2":"2 52817   0.0638  36.8161 0005773 359.9770 254.5675  1.00271745 14500","mean_motion":1.00271745,"eccentricity":0.0005773,"inclination_deg":0.0638,"raan_deg":36.8161,"arg_perigee_deg":359.977,"mean_anomaly_deg":254.5675,"bstar":0,"rev_number":1450,"period_min":1436.0974769114,"perigee_km":35762.264468412,"apogee_km":35810.947880881,"semimajor_km":42164.743174646,"source":"CELESTRAK","updated_at":"2026-05-25T13:38:14.107683Z"}}